Location: Budapest
(47.4979°N, 19.0402°E)
Time: 11:30:16
(UTC+02:00)

ISS - Pass Details

Date: 08 October 2017
Orbit: 401 x 408 km, 51.6° (Epoch: 18 October)

Event Time Altitude Azimuth Distance (km) Brightness Sun altitude
Rises 19:38:42 0° 292° (WNW) 2,327 1.6 -15.9°
Reaches altitude 10° 19:40:49 10° 297° (WNW) 1,467 0.2 -16.2°
Maximum altitude 19:44:04 55° 17° (NNE) 495 -3.5 -16.8°
Enters shadow 19:44:45 44° 64° (ENE) 576 -3.5 -16.9°
